Météo par heure à Abano Terme

Ce jour, 3 Décembre, Jeudi

Heure Température Précipitation Vent Pression Humidité
00:00 +3°C° 0.2 mm 2 m/s 754 mmHg 91%
01:00 +3°C° 0 mm 2 m/s 754 mmHg 89%
02:00 +3°C° 0.4 mm 2 m/s 754 mmHg 90%
03:00 +3°C° 0.4 mm 2 m/s 754 mmHg 91%
04:00 +4°C° 0.4 mm 1 m/s 754 mmHg 92%
05:00 +4°C° 0 mm 1 m/s 754 mmHg 92%
06:00 +4°C° 0 mm 1 m/s 754 mmHg 92%
07:00 +4°C° 0 mm 1 m/s 754 mmHg 92%
08:00 +5°C° 0 mm 1 m/s 754 mmHg 91%
09:00 +5°C° 0 mm 1 m/s 754 mmHg 89%
10:00 +5°C° 0 mm 1 m/s 754 mmHg 88%
11:00 +6°C° 0 mm 1 m/s 754 mmHg 86%
12:00 +7°C° 0 mm 1 m/s 754 mmHg 84%
13:00 +6°C° 0 mm 2 m/s 754 mmHg 81%
14:00 +7°C° 0 mm 1 m/s 754 mmHg 82%
15:00 +7°C° 0 mm 1 m/s 753 mmHg 83%
16:00 +6°C° 0 mm 1 m/s 753 mmHg 84%
17:00 +6°C° 0 mm 1 m/s 753 mmHg 85%
18:00 +6°C° 0 mm 1 m/s 753 mmHg 85%
19:00 +6°C° 0 mm 1 m/s 753 mmHg 86%
20:00 +5°C° 0 mm 1 m/s 753 mmHg 86%
21:00 +5°C° 0 mm 1 m/s 753 mmHg 86%
22:00 +5°C° 0 mm 1 m/s 753 mmHg 87%
23:00 +5°C° 0 mm 1 m/s 753 mmHg 87%

Demain, 4 Décembre, Vendredi

Heure Température Précipitation Vent Pression Humidité
00:00 +5°C° 0 mm 1 m/s 752 mmHg 87%
01:00 +3°C° 0 mm 0 m/s 752 mmHg 87%
02:00 +3°C° 0 mm 0 m/s 752 mmHg 88%
03:00 +3°C° 0 mm 0 m/s 751 mmHg 88%
04:00 +3°C° 0 mm 0 m/s 751 mmHg 88%
05:00 +4°C° 0 mm 1 m/s 751 mmHg 88%
06:00 +3°C° 0 mm 2 m/s 751 mmHg 88%
07:00 +2°C° 0 mm 3 m/s 751 mmHg 88%
08:00 +3°C° 0 mm 3 m/s 750 mmHg 87%
09:00 +3°C° 0 mm 4 m/s 750 mmHg 85%
10:00 +2°C° 0 mm 5 m/s 750 mmHg 84%
11:00 +3°C° 0.1 mm 5 m/s 749 mmHg 84%
12:00 +3°C° 0.1 mm 6 m/s 749 mmHg 83%
13:00 +4°C° 0.1 mm 6 m/s 748 mmHg 82%
14:00 +4°C° 0.2 mm 6 m/s 748 mmHg 83%
15:00 +5°C° 0.2 mm 6 m/s 747 mmHg 84%
16:00 +5°C° 0.2 mm 6 m/s 747 mmHg 84%
17:00 +7°C° 0.6 mm 6 m/s 746 mmHg 83%
18:00 +8°C° 0.6 mm 6 m/s 746 mmHg 82%
19:00 +8°C° 0.6 mm 5 m/s 746 mmHg 81%
20:00 +9°C° 0.4 mm 6 m/s 746 mmHg 80%
21:00 +9°C° 0.4 mm 6 m/s 745 mmHg 79%
22:00 +10°C° 0.4 mm 6 m/s 745 mmHg 78%
23:00 +10°C° 0.4 mm 6 m/s 745 mmHg 78%

Après-demain, 5 Décembre, Samedi

Heure Température Précipitation Vent Pression Humidité
00:00 +10°C° 0.4 mm 6 m/s 745 mmHg 78%
01:00 +10°C° 0.4 mm 5 m/s 745 mmHg 78%
02:00 +10°C° 0.8 mm 5 m/s 745 mmHg 80%
03:00 +10°C° 0.8 mm 5 m/s 745 mmHg 82%
04:00 +10°C° 0.8 mm 5 m/s 745 mmHg 84%
05:00 +9°C° 0.5 mm 5 m/s 745 mmHg 86%
06:00 +10°C° 0.5 mm 4 m/s 745 mmHg 88%
07:00 +10°C° 0.5 mm 4 m/s 745 mmHg 90%
08:00 +11°C° 2 mm 4 m/s 745 mmHg 87%
09:00 +10°C° 2 mm 5 m/s 745 mmHg 85%
10:00 +12°C° 2 mm 5 m/s 745 mmHg 83%
11:00 +11°C° 0.1 mm 6 m/s 745 mmHg 79%
12:00 +12°C° 0.1 mm 7 m/s 745 mmHg 74%
13:00 +13°C° 0.1 mm 8 m/s 745 mmHg 70%
14:00 +11°C° 1.8 mm 6 m/s 745 mmHg 77%
15:00 +11°C° 1.8 mm 4 m/s 745 mmHg 84%
16:00 +9°C° 1.8 mm 2 m/s 746 mmHg 91%
17:00 +9°C° 0.6 mm 2 m/s 746 mmHg 91%
18:00 +9°C° 0.6 mm 2 m/s 746 mmHg 92%
19:00 +9°C° 0.6 mm 2 m/s 746 mmHg 92%
20:00 +9°C° 1.2 mm 2 m/s 747 mmHg 93%
21:00 +10°C° 1.2 mm 1 m/s 747 mmHg 93%
22:00 +10°C° 1.2 mm 1 m/s 747 mmHg 94%
23:00 +10°C° 0.5 mm 1 m/s 747 mmHg 94%

6 Décembre, Dimanche

Heure Température Précipitation Vent Pression Humidité
00:00 +9°C° 0.5 mm 1 m/s 747 mmHg 94%
01:00 +8°C° 0.5 mm 0 m/s 747 mmHg 94%
02:00 +9°C° 0.5 mm 1 m/s 747 mmHg 95%
03:00 +9°C° 0.5 mm 1 m/s 747 mmHg 95%
04:00 +9°C° 0.5 mm 1 m/s 747 mmHg 96%
05:00 +9°C° 1.3 mm 1 m/s 747 mmHg 96%
06:00 +9°C° 1.3 mm 1 m/s 747 mmHg 96%
07:00 +9°C° 1.3 mm 1 m/s 746 mmHg 97%
08:00 +9°C° 1 mm 1 m/s 746 mmHg 96%
09:00 +8°C° 1 mm 2 m/s 746 mmHg 95%
10:00 +8°C° 1 mm 2 m/s 745 mmHg 94%
11:00 +8°C° 1 mm 3 m/s 745 mmHg 93%
12:00 +8°C° 1 mm 3 m/s 744 mmHg 91%
13:00 +7°C° 1 mm 4 m/s 743 mmHg 90%
14:00 +7°C° 0.6 mm 4 m/s 743 mmHg 89%
15:00 +7°C° 0.6 mm 4 m/s 743 mmHg 87%
16:00 +7°C° 0.6 mm 4 m/s 743 mmHg 86%
17:00 +6°C° 0.5 mm 4 m/s 744 mmHg 86%
18:00 +6°C° 0.5 mm 4 m/s 744 mmHg 85%
19:00 +6°C° 0.5 mm 4 m/s 744 mmHg 84%
20:00 +5°C° 0.1 mm 4 m/s 745 mmHg 82%
21:00 +5°C° 0.1 mm 4 m/s 745 mmHg 81%
22:00 +5°C° 0.1 mm 4 m/s 746 mmHg 79%
23:00 +4°C° 0 mm 3 m/s 746 mmHg 78%

7 Décembre, Lundi

Heure Température Précipitation Vent Pression Humidité
00:00 +4°C° 0 mm 3 m/s 747 mmHg 77%
01:00 +4°C° 0 mm 3 m/s 748 mmHg 77%
02:00 +5°C° 0 mm 2 m/s 748 mmHg 77%
03:00 +5°C° 0 mm 2 m/s 749 mmHg 77%
04:00 +5°C° 0 mm 1 m/s 749 mmHg 77%
05:00 +5°C° 0 mm 1 m/s 750 mmHg 78%
06:00 +4°C° 0 mm 2 m/s 751 mmHg 80%
07:00 +4°C° 0 mm 2 m/s 751 mmHg 81%
08:00 +5°C° 0.2 mm 2 m/s 752 mmHg 80%
09:00 +5°C° 0.2 mm 3 m/s 752 mmHg 80%
10:00 +5°C° 0.2 mm 3 m/s 753 mmHg 80%
11:00 +6°C° 0.1 mm 4 m/s 752 mmHg 77%
12:00 +7°C° 0.1 mm 4 m/s 752 mmHg 75%
13:00 +8°C° 0.1 mm 4 m/s 752 mmHg 72%
14:00 +8°C° 0.1 mm 5 m/s 752 mmHg 76%
15:00 +7°C° 0.1 mm 5 m/s 753 mmHg 80%
16:00 +7°C° 0.1 mm 6 m/s 753 mmHg 84%
17:00 +6°C° 0.2 mm 5 m/s 753 mmHg 85%
18:00 +6°C° 0.2 mm 5 m/s 753 mmHg 85%
19:00 +6°C° 0.2 mm 4 m/s 753 mmHg 85%
20:00 +6°C° 0.6 mm 4 m/s 753 mmHg 86%
21:00 +6°C° 0.6 mm 4 m/s 754 mmHg 87%
22:00 +7°C° 0.6 mm 3 m/s 754 mmHg 88%
23:00 +7°C° 0.5 mm 3 m/s 753 mmHg 88%

8 Décembre, Mardi

Heure Température Précipitation Vent Pression Humidité
00:00 +7°C° 0.5 mm 3 m/s 753 mmHg 88%
01:00 +5°C° 0.5 mm 3 m/s 753 mmHg 89%
02:00 +5°C° 1.4 mm 3 m/s 753 mmHg 90%
03:00 +5°C° 1.4 mm 3 m/s 753 mmHg 91%
04:00 +5°C° 1.4 mm 4 m/s 753 mmHg 93%
05:00 +5°C° 2.2 mm 4 m/s 753 mmHg 92%
06:00 +5°C° 2.2 mm 3 m/s 753 mmHg 92%
07:00 +5°C° 2.2 mm 3 m/s 753 mmHg 92%
08:00 +5°C° 1.4 mm 3 m/s 753 mmHg 92%
09:00 +5°C° 1.4 mm 3 m/s 753 mmHg 92%
10:00 +5°C° 1.4 mm 3 m/s 753 mmHg 91%
11:00 +5°C° 0.9 mm 4 m/s 753 mmHg 91%
12:00 +5°C° 0.9 mm 4 m/s 753 mmHg 90%
13:00 +6°C° 0.9 mm 4 m/s 753 mmHg 90%
14:00 +5°C° 1.1 mm 4 m/s 753 mmHg 90%
15:00 +5°C° 1.1 mm 4 m/s 753 mmHg 91%
16:00 +5°C° 1.1 mm 4 m/s 753 mmHg 91%
17:00 +5°C° 1 mm 4 m/s 753 mmHg 91%
18:00 +5°C° 1 mm 4 m/s 753 mmHg 90%
19:00 +6°C° 1 mm 4 m/s 753 mmHg 90%
20:00 +7°C° 0.3 mm 3 m/s 754 mmHg 89%
21:00 +7°C° 0.3 mm 3 m/s 754 mmHg 88%
22:00 +7°C° 0.3 mm 3 m/s 754 mmHg 87%
23:00 +7°C° 0 mm 3 m/s 754 mmHg 87%
Voir plus

Nous avons besoin de votre consentement

Meteoprog et ses fournisseurs de services peuvent stocker et accéder à des données personnelles telles que des cookies, des identifiants d'appareils ou d'autres technologies similaires sur votre appareil et traiter ces données pour personnaliser le contenu et les publicités, ainsi que pour fournir des fonctionnalités de médias sociaux et analyser le trafic.

  • Stocker et/ou accéder à des informations sur votre appareil

    Des cookies, des identifiants d'appareils ou d'autres informations peuvent être stockés ou accessibles sur votre appareil aux fins indiquées ci-dessus.

  • Annonces et contenus personnalisés, mesure des annonces et des contenus, connaissance de l'audience et développement de produits

    Les annonces et le contenu peuvent être personnalisés en fonction d'un profil. D'autres données peuvent être ajoutées pour mieux personnaliser les annonces et le contenu. Les performances des publicités et du contenu peuvent être mesurées. Il est possible d'obtenir des informations sur le public qui a vu les publicités et le contenu. Ces données peuvent être utilisées pour développer ou améliorer l'expérience de l'utilisateur, les systèmes et les logiciels.

En cliquant sur "J'accepte", vous autorisez l'utilisation de cookies, des identifiants d'appareils, des balises web ou d'autres technologies similaires. Vos paramètres peuvent être modifiés dans le navigateur de votre appareil.

Dans certains cas, des intérêts légitimes peuvent être invoqués plutôt qu'un consentement. Vous pouvez en savoir plus à ce sujet dans notre Politique de confidentialité et de cookies.